User: anonymous   Login
Location: *
(51.1248°S, 108.4023°W)
Time: 02:48:00
(UTC+00:00)
Language:

CZ-2C R/B - Orbit

View from above orbital plane
View from above orbital plane
View from above satellite
View from above satellite

Ground track
Ground track

The orbit data is extracted from the following two-line orbital elements,

1 31114U 07010B   21270.54655553  .00000057  00000-0  45217-4 0  9993
2 31114  98.2321  97.0827 0059440 346.1157  13.8384 14.19376300749268
Epoch (UTC): 27 September 2021 13:07:02
Eccentricity: 0.0059440
inclination: 98.2321°
perigee height: 784 km
apogee height: 870 km
right ascension of ascending node: 97.0827°
argument of perigee: 346.1157°
revolutions per day: 14.19376300
mean anomaly at epoch: 13.8384°
orbit number at epoch: 74926

The dashed part of the orbit path shows where the satellite is in the earth's shadow,  

DLR